Location: Ku?niki
(51.4449°N, 17.8974°E)
Time: 16:09:05
(UTC+00:00)

Cosmos 1898 Rocket - Pass Details

Date: 18 September 2020
Orbit: 753 x 784 km, 74.0° (Epoch: 22 October)

Event Time Altitude Azimuth Distance (km) Brightness Sun altitude
Rises 18:25:54 0° 219° (SW) 3,196 7.0 -14.6°
Reaches altitude 10° 18:28:19 10° 225° (SW) 2,276 6.2 -15.0°
Maximum altitude 18:33:20 51° 301° (WNW) 949 4.4 -15.7°
Drops below altitude 10° 18:38:25 10° 18° (NNE) 2,297 6.0 -16.4°
Sets 18:40:52 0° 23° (NNE) 3,230 6.8 -16.7°
